Back to catalog

PE2_FLT2

TYVAK-0262

AliveScienceSSO
NORAD 59104·PAYLOAD·🇺🇸 United States

Launched Mar 4, 2024 from Vandenberg Space Force Base

Loading…

Next Passes (next 24 hours)

TLE

FreshSource: Space-Track

Epoch: Sep 14, 2026, 04:43 UTC

1 59104U 24043G   26257.19655442  .00001917  00000-0  16920-3 0  9999
2 59104  97.8520  28.2077 0007684 102.0231 258.1852 14.97576935137976

Track PE2_FLT2 in real time with AllMySat

Download on the App Store